User: anonymous   Login
Location: Newark
(52.8300°N, 8.0000°E)
Time: 02:05:10
(UTC+00:00)
Language:

STARLINK-1126 - Orbit

View from above orbital plane
View from above orbital plane
View from above satellite
View from above satellite

Ground track
Ground track

The orbit data is extracted from the following two-line orbital elements,

1 44951U 20001AP  20091.91667824 -.00123270  00000-0 -83282-2 0  9993
2 44951  52.9981 342.6643 0001474  83.4392 240.7385 15.06720822 14548
Epoch (UTC): 31 March 2020 22:00:01
Eccentricity: 0.0001474
inclination: 52.9981°
perigee height: 545 km
apogee height: 547 km
right ascension of ascending node: 342.6643°
argument of perigee: 83.4392°
revolutions per day: 15.06720822
mean anomaly at epoch: 240.7385°
orbit number at epoch: 1454

The dashed part of the orbit path shows where the satellite is in the earth's shadow,  

DLR